THOR ABLESTAR DEB, 327

Orbit data source: Space-Track

THOR ABLESTAR DEB, 327 is space debris in LEO originally from a launch on Thu, 29 Jun 1961 UTC launched from the Air Force Eastern Test Range (AFETR). Debris objects in space refer to the collection of defunct objects orbiting the Earth. Examples of debris include non-operational satellites, rocket bodies, and fragments generated from explosions, collisions, or faulty payload assembly.

Loading next visibility...
Identifier
327, 1961-015DD
Orbit
LEO
Last TLE update
13 hours ago
Origin
Manufacturer
Unknown
Mission
Spacecraft
Bus & Motor
Unknown
Mass
Unknown
Launch date (UTC)
1961-06-29 (64 years ago)
Launch vehicle
Unknown
Launch site
Air Force Eastern Test Range (AFETR)
Object type
Payload
Rocket body
Debris
Shape & HBR
Unknown
Radar Cross Section
Small (<0.1 m²)

Expand to show TLE details & history

TLE from 13 hours ago
0 THOR ABLESTAR DEB
1 00327U 61015DD  25133.80506775  .00000115  00000-0  14750-3 0  9994
2 00327  66.5427 293.3428 0109058  28.1779 332.5139 13.90666284231201
Epoch: 2025-05-13T19:19Z
Definitive object data (Epoch: 2025-05-13T19:19:17.853Z)
Latitude
-0.00009°
Longitude
131.71984°
Altitude
857.864 km
Speed
7.46 km/s
True Right ascension
19h 33m 22s
True Declination
0° 00' 00"
Sunlit
Object was in daylight at TLE epoch
Visualization TLE readout
Latitude
13.01447°
Longitude
-55.32874°
Altitude
986.356 km
Speed
7.33 km/s
Apparent Right ascension
06h 06m 51s
Apparent Declination
-11° 53' 36"
Sunlit
Object is in daylight
Visualization observer readout
Local Sidereal Time
16:40:18
Azimuth
319.706° NNW
Elevation
-56.085°
Doppler factor
1
Orbital elements
Apogee altitude
1,004.363 km
Perigee altitude
845.076 km
Semi-major axis
7,302.857 km
Eccentricity
0.0109058
Inclination
66.5427°
RAAN
293.3428°
Arg. of periapsis
28.1779°
True anomaly
331.93007°
Mean anomaly
332.5139°
Eccentric anomaly
332.22269°
Mean motion
3.4778 °/min
BSTAR
0.0001475
Orbital period
103.51 mins
Loading maneuver chart data...
Loading SW <> Apogee altitude chart data...

THOR ABLESTAR DEB Visibility forecast

Observer location: undefined°, undefined°

Span
Click to sort rows by Start time (UTC) header in descending order
Start Az.
Max El. time (UTC)
Max El. Az.
Max El.
End time (UTC)
End Az.
7 mins2025-05-14 10:58:28.098Z149.031° SSE2025-05-14 11:02:28.098Z101.667° ESE18.82°2025-05-14 11:05:28.098Z66.284° ENE
9 mins2025-05-14 12:44:28.098Z230.89° WSW2025-05-14 12:48:28.098Z319.482° NNW39.665°2025-05-14 12:53:28.098Z21.415° NNE
8 mins2025-05-14 20:01:28.098Z2.572° NNE2025-05-14 20:05:28.098Z55.195° ENE23.466°2025-05-14 20:09:28.098Z99.005° ESE
10 mins2025-05-14 21:47:28.098Z319.117° NNW2025-05-14 21:51:28.098Z260.909° W40.544°2025-05-14 21:57:28.098Z168.625° S
|